Regional Weather Roundup
Issued by NWS

Home | Current Version | Previous Version | Graphics & Text | Print | Product List | Glossary On
Versions: 1 2 3 4 5 6 7 8 9 10 11 12 13 14 15 16 17 18 19 20 21 22 23 24 25 26 27 28 29 30 31 32 33 34 35 36 37 38 39 40 41 42 43 44 45 46 47 48 49 50
000
ASUS43 KBIS 210802
RWRND

NORTH DAKOTA REGIONAL WEATHER ROUNDUP
NATIONAL WEATHER SERVICE BISMARCK ND
300 AM CDT MON AUG 21 2017

NOTE: "FAIR" INDICATES FEW OR NO CLOUDS BELOW 12,000 FEET WITH NO
SIGNIFICANT WEATHER AND/OR OBSTRUCTIONS TO VISIBILITY.


NDZ001>003-009>011-017-210900-
NORTHWEST NORTH DAKOTA

CITY           SKY/WX    TMP DP  RH WIND       PRES   REMARKS
WILLISTON      CLEAR     57  45  64 SW5       29.96S
MINOT          MOCLDY    63  50  62 S7        29.95F
MINOT AFB      PTCLDY    61  49  65 S7        29.94F
$$

NDZ018>021-031>035-040>046-210900-
SOUTHWEST NORTH DAKOTA

CITY           SKY/WX    TMP DP  RH WIND       PRES   REMARKS
BISMARCK       CLOUDY    55  49  80 NE8       29.97F
DICKINSON      MOCLDY    60  47  61 E8        30.00S
GARRISON         N/A     59  51  75 SW8       30.00R
HETTINGER ARPT CLOUDY    55  48  77 SE6       29.98F
$$

NDZ004>008-012>016-024-026-027-054-210900-
NORTHEAST NORTH DAKOTA

CITY           SKY/WX    TMP DP  RH WIND       PRES   REMARKS
GRAND FORKS    CLOUDY    55  52  89 CALM      29.99F
GRND FRKS AFB  CLOUDY    53  50  90 CALM      30.00F
DEVILS LAKE    MOCLDY    59  49  69 SE3       30.01F
$$

NDZ022-023-025-028>030-036>039-047>053-210900-
SOUTHEAST NORTH DAKOTA

CITY           SKY/WX    TMP DP  RH WIND       PRES   REMARKS
FARGO          CLOUDY    58  55  90 SW3       30.01F
JAMESTOWN      PTCLDY    57  53  86 CALM      30.01F
$$





USA.gov is the U.S. government's official web portal to all federal, state and local government web resources and services.